Flight Track Log - Related Links

Times and Time Zones

All times are in EDT time to prevent confusion due to time zone crossing. See the OPT732 flight status page for this flight to view local times or setup timezone preferences in your user account.

Time Position Orientation Groundspeed Altitude Reporting Facility
EDT Latitude Longitude Course Direction KTS MPH feet Rate Location/Type
04:27PM 41.7028 -86.1789 78° East 238 274 5,000  Level Chicago Center
04:28PM 41.7194 -86.0589 79° East 272 313 6,200 2,390 Climbing Chicago Center
04:29PM 41.7344 -85.9497 80° East 294 338 9,900 1,824 Climbing Chicago Center
04:30PM 41.7503 -85.8356 79° East 307 353 10,000 624 Climbing Chicago Center
04:31PM 41.7669 -85.7211 79° East 311 358 11,200 1,984 Climbing Chicago Center
04:32PM 41.7842 -85.5906 80° East 343 395 14,100 2,613 Climbing Chicago Center
04:33PM 41.8058 -85.4544 78° East 364 419 16,600 2,565 Climbing Chicago Center
04:34PM 41.8506 -85.3233 65° Northeast 380 437 19,400 2,419 Climbing Chicago Center
04:35PM 41.8950 -85.1864 66° East 393 452 21,600 2,448 Climbing Chicago Center
04:36PM 41.9539 -85.0064 66° East 419 482 24,500 1,659 Climbing Cleveland Center
04:37PM 42.0033 -84.8561 66° East 425 489 25,000 250 Climbing Cleveland Center
04:38PM 42.0303 -84.6900 78° East 431 496 25,000  Level Cleveland Center
04:39PM 42.0344 -84.5142 88° East 451 519 25,000  Level Cleveland Center
04:40PM 42.0386 -84.3242 88° East 476 548 25,000  Level Cleveland Center
04:41PM 42.0358 -84.1508 91° East 500 575 25,000  Level Cleveland Center
04:42PM 42.0375 -83.9578 89° East 519 597 25,000  Level Cleveland Center
04:43PM 42.0411 -83.7567 89° East 524 603 25,000 -100 Level Cleveland Center
04:44PM 42.0447 -83.5472 89° East 524 603 24,800 -900 Descending Cleveland Center
04:45PM 42.0367 -83.3622 93° East 503 579 23,200 -1,450 Descending Cleveland Center
04:46PM 42.0214 -83.2217 98° East 484 557 21,900 -1,550 Descending Cleveland Center
04:47PM 42.0031 -83.0142 97° East 474 545 20,100 -950 Descending Cleveland Center
04:48PM 41.9856 -82.8403 98° East 469 540 20,000 -550 Descending Cleveland Center
04:49PM 41.9703 -82.6694 97° East 463 533 19,000 -1,250 Descending Cleveland Center
04:50PM 41.9522 -82.5069 98° East 448 516 17,500 -1,500 Descending Cleveland Center
04:51PM 41.9378 -82.3556 97° East 432 497 16,000 -1,250 Descending Cleveland Center
04:52PM 41.9214 -82.2044 98° East 412 474 15,000 -1,000 Descending Cleveland Center
04:53PM 41.9067 -82.0675 98° East 407 468 14,000 -1,800 Descending Cleveland Center
04:54PM 41.8917 -81.9192 98° East 407 468 11,400 -2,071 Descending Cleveland Center
04:55PM 41.8819 -81.8522 101° East 408 470 11,100 -333 Descending Cleveland Center
04:55PM 41.8744 -81.7794 98° East 374 430 11,100 -1,765 Level Cleveland Center
04:56PM 41.8611 -81.6647 99° East 319 367 8,600 -2,810 Descending Cleveland Center
04:57PM 41.8497 -81.5419 97° East 304 350 5,200 -2,107 Descending Cleveland Center
04:58PM 41.8253 -81.4469 109° East 271 312 4,000 -600 Descending Cleveland Center
04:59PM 41.7544 -81.4458 179° South 216 249 4,000 -250 Level Cleveland Center
05:00PM 41.6814 -81.4506 183° South 239 275 3,500 -750 Descending Cleveland Center
05:01PM 41.6231 -81.4775 199° South 238 274 2,500 -550 Descending Cleveland Center
05:02PM 41.5831 -81.5269 223° Southwest 216 249 2,400 -350 Descending Cleveland Center
05:03PM 41.5494 -81.5319 186° South 188 216 1,800 -650 Descending Cleveland Center
05:04PM 41.5372 -81.5014 118° Southeast 81 93 1,100 -700 Descending Cleveland Center
05:06PM 41.5500 -81.4833 56° Northeast  Level FlightAware Approximate

Login

Don't have an account? Register now (free) for customized features, flight alerts, and more!